Weather History for EGQK - November, 2012

Change the Weather History Date:

Thursday, November 22, 2012

  Actual Average Record
Temperature  
Mean Temperature 48 °F -  
Max Temperature 53 °F 45 °F - ()
Min Temperature 42 °F 35 °F - ()
Degree Days  
Heating Degree Days 18    
Moisture  
Dew Point 38 °F    
Average Humidity 68    
Maximum Humidity 81    
Minimum Humidity 49    
Precipitation  
Precipitation 0.00 in 0.07 in - ()
Sea Level Pressure  
Sea Level Pressure 29.27 in    
Wind  
Wind Speed 8 mph ()    
Max Wind Speed 22 mph    
Max Gust Speed 38 mph    
Visibility 6.2 miles    
Events Rain    
T = Trace of Precipitation, MM = Missing Value Source: Averaged Metar Reports

Daily Weather History Graph

Daily Weather History Graph

Search for Another Location

Airport or City:

Trip Planner

Search our weather history database for the weather conditions in past years. The results will help you decide how hot, cold, wet, or windy it might be!

Date:

Astronomy

Nov. 22, 2012 Rise Set
Actual Time 8:14 AM GMT 3:45 PM GMT
Civil Twilight 7:28 AM GMT 4:32 PM GMT
Nautical Twilight 6:39 AM GMT 5:21 PM GMT
Astronomical Twilight 5:52 AM GMT 6:07 PM GMT
Moon 1:26 PM GMT (11/22) 1:11 AM GMT (11/22)
Length of Visible Light 9h 04m
Length of Day
7h 30m
Waxing Gibbous, 69% of the Moon is Illuminated
Nov 22
Waxing Gibbous
Nov 28
Full
Dec 6
Last Quarter
Dec 13
New
Dec 20
First Quarter

Hourly Weather History & Observations

Time (GMT) Temp. Windchill Dew Point Humidity Pressure Visibility Wind Dir Wind Speed Gust Speed Precip Events Conditions
12:50 AM 42.8 °F 37.5 °F 33.8 °F 70% 29.50 in - SE 9.2 mph - N/A   Unknown
1:50 AM 46.4 °F 42.4 °F 37.4 °F 71% 29.50 in 6.2 mi South 8.1 mph - N/A   Partly Cloudy
2:50 AM 49 °F - 39 °F 60% 29.48 in 47 mi South 8.1 mph - -  
2:50 AM 48.2 °F - 39.2 °F 71% 29.47 in 6.2 mi South 8.1 mph - N/A   Unknown
3:50 AM 46.4 °F 42.9 °F 39.2 °F 76% 29.44 in 6.2 mi SSE 6.9 mph - N/A   Unknown
4:50 AM 48.2 °F - 39.2 °F 71% 29.42 in 6.2 mi ESE 8.1 mph - N/A   Mostly Cloudy
5:50 AM 47 °F - 40 °F 69% 29.36 in 28 mi ESE 3.5 mph - -  
5:50 AM 46.4 °F 45.2 °F 41.0 °F 81% 29.36 in 6.2 mi ESE 3.5 mph 16.1 mph N/A   Partly Cloudy
6:50 AM 51.8 °F - 41.0 °F 67% 29.33 in 6.2 mi SE 15.0 mph 27.6 mph N/A   Mostly Cloudy
7:50 AM 53.6 °F - 41.0 °F 62% 29.30 in 6.2 mi South 10.4 mph - N/A   Mostly Cloudy
8:50 AM 52 °F - 41 °F 56% 29.26 in - SE 12.7 mph - - Rain Rain
8:50 AM 51.8 °F - 41.0 °F 67% 29.24 in 6.2 mi SE 12.7 mph - N/A   Mostly Cloudy
9:50 AM 51.8 °F - 41.0 °F 67% 29.21 in 6.2 mi South 16.1 mph 29.9 mph N/A   Mostly Cloudy
10:50 AM 53.6 °F - 39.2 °F 58% 29.18 in 6.2 mi South 21.9 mph 38.0 mph N/A   Mostly Cloudy
11:50 AM 52 °F - 39 °F 49% 29.21 in 47 mi South 17.3 mph - -   Mostly Cloudy
11:50 AM 51.8 °F - 39.2 °F 62% 29.21 in - South 17.3 mph 38.0 mph N/A   Clear
12:50 PM 50.0 °F - 39.2 °F 66% 29.21 in - SSW 13.8 mph - N/A   Clear
1:50 PM 48.2 °F - 39.2 °F 71% 29.21 in - SSW 11.5 mph - N/A   Clear
2:50 PM 47 °F - 38 °F 63% 29.20 in - SW 4.6 mph - -   Mostly Cloudy
2:50 PM 48.2 °F - 39.2 °F 71% 29.18 in 6.2 mi SW 4.6 mph - N/A   Mostly Cloudy
3:50 PM 46.4 °F 41.9 °F 37.4 °F 71% 29.18 in 6.2 mi SSW 9.2 mph - N/A   Mostly Cloudy
4:50 PM 46.4 °F 44.3 °F 37.4 °F 71% 29.18 in 6.2 mi WSW 4.6 mph - N/A   Mostly Cloudy
5:50 PM 45 °F - 36 °F 63% 29.19 in - SSW 4.6 mph - -   Overcast
5:50 PM 44.6 °F 42.2 °F 37.4 °F 76% 29.18 in 6.2 mi SSW 4.6 mph - N/A   Mostly Cloudy
6:50 PM 44.6 °F 39.7 °F 37.4 °F 76% 29.18 in - SSW 9.2 mph - N/A   Clear
7:50 PM 44.6 °F - 35.6 °F 71% 29.18 in - SW 2.3 mph - N/A   Clear
8:50 PM 45 °F - 37 °F 64% 29.21 in 47 mi SSW 11.5 mph - -   Overcast
8:50 PM 44.6 °F 38.8 °F 37.4 °F 76% 29.21 in 6.2 mi SSW 11.5 mph - N/A   Mostly Cloudy
9:50 PM 42.8 °F 37.5 °F 35.6 °F 76% 29.21 in 6.2 mi SSW 9.2 mph - N/A Rain Light Rain Showers
10:50 PM 42.8 °F 36.6 °F 33.8 °F 70% 29.21 in 6.2 mi South 11.5 mph - N/A   Unknown
11:50 PM 42 °F - 33 °F 59% 29.24 in 47 mi South 4.6 mph - -   Scattered Clouds
11:50 PM 42.8 °F 40.1 °F 32.0 °F 66% 29.24 in 6.2 mi South 4.6 mph 17.3 mph N/A   Partly Cloudy